Temp_Advection
nan nan nan nan nan nan nan nan nan nan nan nan nan nan nan nan nan nan nan nan nan nan nan nan nan nan nan nan nan nan nan nan nan nan nan nan nan nan nan nan nan nan nan
nan 1 1 0 0 0 0 0 0 -0 0 0 0 0 0 0 0 0 0 0 0 0 0 0 0 0 0 0 -0 0 0 0 0 1 1 1 1 1 1 1 1 1 nan
nan 1 0 0 0 0 0 0 0 0 0 0 0 0 0 0 0 0 0 0 0 0 0 0 0 0 0 0 0 -0 0 0 0 0 1 1 1 1 1 1 0 0 nan
nan 0 0 1 0 0 0 0 0 0 0 0 0 0 0 0 0 1 1 0 0 0 0 1 1 0 0 0 0 0 0 0 0 0 0 1 1 1 0 0 0 0 nan
nan 1 1 1 0 0 -0 0 0 0 1 0 1 0 0 0 0 1 0 0 0 0 0 1 0 -0 0 0 0 0 0 0 0 0 1 1 1 0 0 0 0 0 nan
nan 1 1 0 0 -0 0 0 0 1 1 1 0 -0 0 0 0 0 1 1 0 0 0 0 0 0 0 0 0 0 0 0 0 1 1 1 1 0 0 0 0 0 nan
nan 0 0 -0 -0 -0 -0 0 0 0 0 0 -0 1 1 1 0 0 1 1 0 0 1 1 0 -0 0 0 0 0 0 0 0 1 1 1 0 0 1 0 0 -0 nan
nan -0 -0 0 -0 -0 0 0 0 0 0 0 0 1 1 0 0 0 1 1 1 0 1 1 0 -0 0 0 0 0 -0 0 1 1 1 1 0 0 0 0 0 0 nan
nan 0 0 0 0 0 0 0 0 1 1 1 0 0 0 0 0 1 1 0 0 0 0 0 0 0 0 0 0 0 -0 -0 0 0 1 1 1 0 0 0 0 0 nan
nan 0 0 0 0 1 1 0 0 1 1 0 0 0 0 0 0 0 0 0 0 0 0 0 0 0 0 0 1 1 0 -0 -0 0 0 0 0 0 1 1 0 1 nan
nan 0 0 0 0 0 0 0 1 1 0 0 0 -0 0 0 0 0 0 0 0 0 0 -0 0 0 0 0 0 0 -0 -0 0 0 0 1 1 1 1 1 1 1 nan
nan 0 0 0 1 1 0 1 1 1 0 0 0 0 0 0 0 0 0 0 0 0 0 -0 -0 0 0 0 0 0 0 0 0 0 0 1 1 1 1 1 1 1 nan
nan 0 0 1 1 1 1 1 1 0 0 0 0 0 0 0 0 0 0 0 0 0 0 0 0 0 0 0 0 0 0 -0 -0 0 0 0 0 0 1 1 1 1 nan
nan 0 0 1 1 0 0 1 0 0 0 0 0 0 0 0 0 -0 0 0 0 0 0 0 0 0 0 0 0 0 0 0 0 -0 0 0 0 0 0 0 0 1 nan
nan 1 1 1 0 0 0 0 0 0 0 0 0 0 0 0 0 -0 0 0 0 0 0 0 0 0 0 0 0 0 0 0 0 0 -0 0 0 0 0 0 0 0 nan
nan 1 1 1 0 0 0 0 0 0 0 0 0 0 0 0 0 0 0 0 0 0 0 0 0 -0 -0 -0 -0 -0 0 0 0 0 -0 -0 -0 -0 -0 0 0 -0 nan
nan 1 1 0 0 0 0 0 0 0 0 0 0 0 0 0 0 0 0 0 0 0 0 0 -0 -0 -0 -0 0 0 -0 0 0 0 0 0 -0 0 -0 -0 0 0 nan
nan 1 1 0 0 1 0 0 0 0 0 0 0 0 0 0 0 0 0 0 0 0 0 0 0 0 -0 -0 -0 0 0 0 0 0 0 0 0 0 0 0 0 0 nan
nan 1 0 0 1 1 0 0 0 0 0 0 0 0 0 0 0 0 0 0 0 0 0 -0 0 -0 -0 0 0 0 0 -0 0 0 0 0 0 0 0 0 0 0 nan
nan 1 0 0 1 0 0 0 0 0 0 0 0 0 0 0 0 0 0 0 0 0 0 0 0 0 0 0 0 0 -0 0 0 0 0 0 0 0 0 0 0 0 nan
nan 0 0 1 1 0 0 0 0 0 0 -0 -0 0 -0 -0 -0 -0 -0 0 0 0 0 0 0 0 0 0 0 0 -0 -0 0 0 0 0 0 0 0 0 0 0 nan
nan 0 1 1 0 0 0 0 0 0 0 0 0 0 0 -0 0 -0 0 0 0 0 0 0 0 0 0 0 0 0 0 0 0 0 0 0 0 0 0 0 0 0 nan
nan 1 1 0 0 0 0 0 0 0 0 0 0 0 0 0 0 0 0 0 0 0 0 0 0 0 0 0 0 0 0 0 0 0 0 0 0 0 0 0 0 0 nan
nan 0 0 0 0 0 0 0 0 0 0 0 0 0 0 0 0 0 0 0 0 0 0 0 0 0 0 0 0 0 0 0 0 0 0 0 0 0 0 0 0 0 nan
nan 0 0 0 0 0 0 0 0 0 0 0 0 0 0 0 0 0 0 0 0 0 0 0 0 -0 0 -0 -0 -0 0 0 0 0 0 0 0 0 0 0 0 0 nan
nan nan nan nan nan nan nan nan nan nan nan nan nan nan nan nan nan nan nan nan nan nan nan nan nan nan nan nan nan nan nan nan nan nan nan nan nan nan nan nan nan nan nan
Wind_Speed
14 13 13 13 13 13 12 11 11 10 9 10 11 13 12 12 12 12 12 11 11 9 10 9 9 11 9 8 10 14 17 17 15 11 20 17 19 21 20 22 18 14 13
14 14 15 14 13 11 10 9 10 11 13 12 11 12 13 13 14 15 13 13 13 11 10 12 11 11 10 8 9 10 9 10 15 15 20 19 18 23 21 23 14 10 11
14 14 14 14 13 11 10 11 12 11 11 11 12 13 13 14 14 16 16 17 18 16 16 15 12 11 8 7 8 7 7 9 12 13 18 17 20 25 22 18 15 19 15
12 14 14 14 13 12 12 11 10 10 11 12 13 13 14 15 15 16 16 15 18 18 17 17 13 12 8 8 8 7 8 7 10 13 17 20 22 23 21 19 20 20 17
12 13 14 13 11 11 12 12 13 15 13 13 14 14 13 14 15 16 15 20 18 18 16 15 17 17 13 13 10 8 7 8 9 12 16 20 21 23 25 21 21 21 14
11 11 11 9 9 11 12 12 14 15 15 14 14 13 12 13 22 19 17 17 19 17 16 17 18 16 16 15 15 16 15 11 11 12 17 20 22 28 27 28 23 19 18
10 10 9 9 9 12 13 14 15 16 17 18 19 19 19 22 18 16 15 19 18 16 16 14 12 15 12 12 12 13 16 18 19 17 18 21 24 25 29 29 23 23 14
11 10 11 13 13 14 15 16 17 18 19 19 18 17 16 17 15 14 15 17 15 14 14 15 16 17 13 13 12 13 16 17 20 21 22 16 13 18 18 20 19 15 12
8 10 11 12 13 15 16 16 16 17 16 17 15 14 15 14 14 14 13 13 13 14 15 15 16 17 14 14 15 17 17 16 17 20 22 21 20 17 16 17 19 18 18
6 8 10 12 13 14 15 14 14 14 15 14 12 11 12 10 8 10 10 11 11 13 13 13 14 16 15 14 12 11 8 11 10 12 18 18 16 16 21 18 18 21 17
5 8 10 11 13 14 14 12 12 12 12 12 9 9 9 9 10 11 11 9 9 9 10 10 11 10 8 6 7 6 10 7 8 8 10 14 17 19 25 25 23 23 17
7 8 10 13 14 15 13 11 10 11 10 9 8 10 9 9 10 9 9 9 8 6 6 7 9 5 5 4 6 6 6 2 4 6 7 8 12 21 25 26 23 23 21
8 8 10 13 15 15 14 11 10 10 9 8 8 10 7 8 9 8 7 7 7 7 6 7 5 4 4 5 8 8 5 6 5 6 8 10 13 13 16 18 19 20 20
8 9 11 12 12 12 11 9 9 8 8 9 8 7 6 6 7 7 6 7 7 7 6 6 5 1 4 1 6 6 7 8 7 7 7 10 11 10 9 10 11 11 11
10 11 11 11 10 9 10 11 12 11 9 8 8 8 7 7 8 7 5 6 7 7 7 5 3 4 4 5 5 6 7 7 6 6 9 10 10 10 11 9 9 7 8
11 11 12 11 10 11 12 14 14 11 10 10 9 9 9 8 8 6 6 5 7 7 6 5 5 6 4 5 5 6 6 6 5 5 8 8 8 8 9 9 10 9 8
11 12 12 11 11 13 11 13 12 11 9 10 9 8 8 8 8 8 7 5 6 8 7 5 5 5 4 4 5 6 6 7 10 9 8 8 8 9 9 9 9 9 9
16 18 13 12 13 14 13 13 11 8 9 10 9 9 8 8 9 8 7 7 8 7 6 6 6 7 7 6 7 7 8 8 8 8 10 11 10 9 9 8 8 9 8
17 16 14 13 13 14 13 13 12 9 8 8 9 9 9 8 8 7 7 5 5 5 5 5 5 6 6 7 7 8 7 7 8 9 8 8 10 9 9 8 9 10 9
15 15 15 13 14 13 13 12 11 11 12 10 10 10 12 10 9 9 10 8 8 6 6 6 6 7 8 8 9 9 9 10 9 10 9 9 9 9 9 9 9 10 8
14 16 14 13 13 14 14 14 13 13 12 12 11 12 11 9 9 7 6 6 6 4 5 6 7 9 10 10 8 8 8 7 8 9 7 8 9 7 7 7 7 7 7
14 15 14 14 13 14 14 15 16 15 14 13 13 12 10 10 8 8 8 7 8 7 6 8 7 7 8 8 9 9 10 9 9 9 9 10 8 8 8 7 7 6 6
14 14 15 14 13 14 15 15 15 15 15 15 15 14 14 12 11 9 10 9 7 7 8 9 10 9 11 13 11 9 9 9 9 9 9 9 9 8 8 8 8 9 8
14 14 14 14 15 16 16 16 16 15 15 15 14 14 15 13 12 11 10 9 9 8 9 11 11 11 11 10 10 10 9 11 10 10 11 8 8 10 9 10 10 10 10
13 15 15 16 16 16 17 16 15 15 15 15 14 14 15 14 13 12 9 7 6 8 8 9 10 11 9 8 8 10 13 10 9 8 8 8 9 11 10 10 9 9 8
13 15 15 16 17 17 16 16 15 14 14 14 15 14 13 12 11 9 9 8 8 8 8 8 8 8 7 8 8 8 8 8 8 8 7 7 9 11 11 10 10 9 10
Wind_Direction
216 217 218 217 217 223 232 231 230 232 237 242 247 255 254 254 254 253 252 239 249 250 260 264 263 258 262 254 256 249 236 239 254 254 212 217 208 218 221 215 233 232 226
229 230 225 222 223 228 228 228 229 244 249 245 243 249 248 247 251 254 243 241 245 244 245 267 271 272 274 264 264 255 242 235 236 226 199 209 212 209 217 222 202 205 217
233 231 226 221 218 214 211 220 240 240 243 253 258 251 251 249 247 249 247 243 253 249 255 263 263 262 258 254 256 247 240 225 222 236 211 208 207 208 212 216 187 203 217
227 225 224 217 210 206 212 225 233 245 250 258 259 253 250 252 250 248 245 244 245 249 258 262 249 254 249 250 253 243 236 228 209 207 210 210 208 205 212 195 192 208 222
214 211 211 207 206 215 228 238 247 258 259 257 252 255 256 254 255 245 237 245 249 250 254 262 247 257 254 246 227 226 239 221 219 207 200 201 196 198 199 195 202 211 204
201 201 202 205 211 234 246 251 260 268 271 266 266 261 255 249 243 247 244 254 249 255 257 253 259 262 260 258 251 231 229 217 227 211 203 207 200 202 202 200 197 192 187
191 194 200 220 231 245 256 261 263 270 269 270 266 259 242 240 260 249 243 243 253 259 258 258 265 259 269 261 251 245 244 240 230 218 222 224 215 226 213 210 202 200 197
192 207 230 241 249 262 268 271 274 279 281 277 271 261 251 249 249 244 244 253 256 250 244 234 240 265 269 276 278 269 261 256 242 229 214 215 219 223 218 210 198 197 204
232 244 253 260 266 270 270 273 277 282 284 277 270 255 253 242 247 254 258 254 255 255 251 254 260 265 276 279 275 272 275 264 250 237 227 205 198 190 189 200 193 189 182
241 253 255 257 260 262 269 278 283 284 281 277 261 254 249 253 262 263 250 255 261 260 263 263 266 275 279 274 261 255 237 263 255 236 226 220 212 209 195 191 195 193 191
261 261 260 259 260 265 273 279 283 275 276 277 268 259 252 254 249 249 247 253 262 268 273 277 278 280 276 263 242 213 233 261 243 239 225 211 208 204 201 196 197 190 209
271 272 271 263 257 256 262 269 271 266 262 259 258 249 244 242 244 243 248 249 244 254 263 269 294 276 262 235 233 223 204 240 139 161 174 168 180 199 200 203 205 199 196
273 275 269 265 255 253 257 259 253 259 253 245 246 252 245 233 248 250 252 253 249 227 248 260 275 282 281 251 197 178 155 132 133 151 159 165 184 189 189 197 203 208 215
274 281 282 275 268 263 251 246 246 241 228 238 226 223 237 240 248 254 261 253 232 233 245 238 246 186 166 188 148 151 136 141 169 178 150 133 138 142 160 175 182 188 196
268 267 268 263 251 246 225 228 235 230 227 232 232 226 218 205 245 254 250 239 211 208 209 220 195 185 187 156 153 159 161 160 170 157 134 132 135 135 135 138 138 135 148
260 257 257 261 242 234 230 236 243 242 239 236 232 219 222 216 238 237 229 224 224 215 185 177 177 185 175 172 172 163 157 156 162 156 150 151 146 145 144 141 135 143 148
258 260 252 244 233 227 219 236 235 231 229 228 226 230 231 226 226 217 209 195 178 172 171 185 176 173 182 167 162 163 165 179 170 163 160 159 154 166 153 147 152 155 155
257 257 251 237 228 226 219 207 230 226 215 215 213 212 214 210 207 209 204 186 169 162 175 188 192 188 185 186 182 174 181 193 163 167 169 173 182 169 159 163 160 159 159
250 248 234 225 220 217 217 212 220 206 202 204 192 188 187 195 194 193 176 157 191 199 192 192 199 189 189 190 188 184 190 163 175 167 181 171 167 166 170 169 173 171 170
247 230 219 216 215 205 200 201 197 201 196 195 172 176 174 185 177 185 172 192 208 202 198 193 196 196 194 193 202 193 182 191 185 172 192 182 174 171 176 173 182 180 163
232 216 213 211 204 197 196 193 193 196 188 176 185 189 187 168 188 186 190 190 171 207 218 200 203 197 197 191 195 189 184 184 186 182 189 189 178 172 178 172 178 168 182
214 213 205 200 194 190 190 193 192 189 188 184 200 202 187 173 203 197 203 203 192 187 206 191 198 194 186 188 194 196 194 194 194 189 187 190 188 186 187 187 186 189 202
206 198 195 192 188 191 184 188 189 190 192 198 207 207 190 191 210 212 218 226 214 193 181 207 180 182 201 199 197 198 193 201 206 195 195 190 188 195 195 198 201 214 222
195 190 182 180 187 181 181 189 190 190 194 201 205 198 191 201 207 211 221 226 223 217 198 193 183 193 211 194 192 191 191 211 211 211 187 195 193 203 200 207 223 226 225
189 183 184 190 187 182 188 190 186 193 198 197 193 193 195 203 205 213 215 221 189 176 182 176 177 197 201 194 196 184 211 221 212 215 208 200 201 215 208 225 230 239 238
187 187 190 186 187 192 195 195 194 197 197 194 191 196 197 195 200 203 205 191 177 178 181 181 191 199 203 211 220 219 219 226 230 232 222 206 211 220 234 231 235 224 240
Height
1506 1508 1509 1509 1510 1511 1512 1512 1513 1514 1516 1515 1515 1514 1514 1515 1512 1510 1511 1511 1510 1511 1510 1509 1509 1510 1509 1509 1509 1509 1510 1512 1512 1509 1511 1511 1514 1515 1518 1517 1518 1519 1521
1503 1504 1504 1506 1507 1508 1510 1511 1510 1510 1509 1509 1508 1509 1510 1509 1511 1509 1506 1507 1506 1506 1506 1505 1505 1507 1506 1505 1505 1505 1506 1508 1508 1506 1507 1508 1511 1512 1514 1515 1518 1521 1518
1499 1500 1501 1502 1503 1504 1505 1506 1505 1507 1507 1506 1506 1505 1504 1505 1503 1505 1503 1501 1500 1501 1500 1501 1502 1503 1504 1503 1503 1503 1503 1504 1504 1503 1504 1506 1509 1508 1510 1514 1518 1518 1517
1494 1495 1497 1497 1498 1498 1500 1501 1502 1503 1504 1504 1502 1501 1499 1500 1499 1498 1498 1496 1494 1494 1495 1496 1497 1499 1499 1499 1500 1499 1499 1499 1501 1503 1500 1502 1505 1507 1509 1512 1515 1516 1516
1489 1491 1493 1494 1494 1495 1495 1496 1497 1497 1498 1498 1498 1497 1493 1493 1495 1494 1494 1492 1490 1489 1490 1492 1491 1493 1494 1494 1496 1496 1497 1497 1499 1501 1501 1497 1501 1504 1506 1510 1512 1512 1515
1486 1488 1489 1490 1491 1492 1492 1492 1493 1493 1494 1494 1494 1491 1491 1489 1486 1488 1488 1488 1487 1486 1486 1487 1488 1488 1489 1490 1491 1491 1492 1493 1495 1497 1498 1497 1497 1500 1503 1505 1508 1510 1513
1482 1484 1484 1486 1488 1487 1488 1487 1485 1486 1488 1486 1485 1482 1481 1480 1483 1483 1484 1484 1484 1484 1484 1483 1483 1483 1484 1485 1486 1486 1487 1488 1490 1491 1493 1493 1493 1493 1499 1501 1505 1506 1509
1478 1479 1480 1482 1483 1483 1482 1483 1483 1481 1480 1482 1479 1476 1477 1476 1478 1479 1479 1480 1481 1481 1481 1480 1480 1480 1481 1481 1481 1481 1481 1483 1483 1485 1487 1489 1490 1491 1494 1497 1502 1505 1507
1474 1475 1476 1477 1478 1479 1480 1478 1477 1476 1476 1478 1476 1473 1474 1472 1473 1475 1476 1477 1478 1479 1478 1478 1477 1477 1478 1478 1477 1476 1476 1477 1478 1480 1482 1483 1485 1489 1492 1496 1500 1502 1502
1470 1471 1472 1472 1473 1473 1474 1473 1473 1472 1474 1473 1472 1470 1472 1470 1470 1473 1474 1474 1475 1476 1476 1476 1475 1474 1474 1474 1474 1474 1474 1475 1476 1476 1478 1480 1484 1486 1490 1493 1497 1499 1500
1467 1468 1468 1468 1469 1469 1470 1470 1468 1469 1469 1470 1469 1468 1470 1467 1468 1472 1472 1472 1473 1474 1474 1473 1472 1471 1471 1471 1472 1473 1474 1474 1474 1475 1476 1478 1481 1484 1488 1491 1492 1495 1498
1464 1464 1465 1466 1465 1466 1466 1466 1466 1468 1467 1466 1466 1468 1468 1465 1466 1469 1470 1470 1472 1473 1473 1471 1470 1470 1471 1470 1471 1472 1473 1473 1475 1476 1477 1476 1478 1480 1484 1488 1491 1494 1496
1460 1460 1462 1462 1463 1463 1463 1463 1465 1465 1465 1462 1465 1467 1465 1463 1465 1468 1469 1469 1470 1471 1471 1470 1470 1470 1470 1470 1472 1473 1473 1475 1478 1479 1478 1477 1478 1480 1483 1486 1489 1492 1495
1455 1457 1457 1459 1459 1459 1460 1463 1464 1463 1461 1461 1464 1464 1463 1463 1465 1466 1467 1468 1469 1470 1471 1471 1471 1471 1472 1472 1473 1473 1475 1478 1479 1479 1477 1478 1480 1482 1484 1486 1488 1490 1492
1452 1453 1453 1455 1456 1455 1458 1462 1462 1459 1459 1461 1462 1462 1461 1463 1465 1466 1467 1468 1469 1469 1469 1470 1472 1472 1473 1473 1474 1474 1476 1478 1479 1479 1480 1482 1483 1484 1486 1488 1490 1492 1493
1449 1449 1451 1452 1451 1455 1456 1458 1459 1457 1457 1459 1460 1460 1460 1463 1464 1465 1467 1468 1469 1469 1470 1471 1472 1474 1474 1474 1475 1476 1477 1479 1480 1481 1483 1484 1485 1486 1488 1489 1492 1495 1496
1444 1445 1446 1448 1448 1453 1453 1455 1455 1455 1456 1457 1458 1458 1459 1462 1463 1465 1466 1467 1468 1469 1471 1471 1472 1474 1475 1476 1476 1478 1479 1480 1480 1483 1484 1486 1487 1488 1489 1491 1493 1495 1497
1441 1441 1442 1443 1446 1448 1450 1453 1453 1453 1454 1456 1457 1457 1459 1461 1463 1464 1466 1467 1468 1469 1470 1471 1472 1474 1475 1476 1476 1477 1478 1478 1480 1482 1484 1485 1486 1488 1490 1492 1493 1495 1497
1436 1438 1438 1440 1443 1444 1448 1450 1452 1452 1453 1454 1455 1457 1459 1461 1462 1464 1465 1467 1468 1468 1469 1470 1471 1472 1474 1475 1476 1477 1477 1479 1481 1482 1483 1485 1486 1489 1490 1492 1493 1495 1496
1432 1434 1436 1437 1440 1442 1445 1448 1450 1451 1453 1454 1455 1457 1459 1460 1462 1463 1464 1466 1467 1468 1469 1470 1471 1472 1474 1474 1474 1476 1477 1478 1480 1482 1483 1484 1486 1488 1489 1491 1492 1493 1496
1429 1431 1433 1435 1438 1440 1443 1446 1448 1451 1452 1454 1456 1457 1459 1461 1462 1463 1464 1465 1465 1467 1467 1469 1469 1470 1472 1473 1474 1475 1477 1478 1479 1481 1483 1484 1486 1488 1489 1490 1492 1493 1495
1426 1429 1431 1433 1436 1439 1441 1444 1447 1450 1452 1453 1455 1456 1458 1461 1461 1462 1463 1463 1464 1465 1466 1467 1468 1469 1471 1472 1474 1474 1476 1477 1478 1480 1482 1483 1485 1487 1488 1490 1491 1492 1493
1424 1427 1429 1432 1435 1437 1440 1443 1446 1448 1450 1452 1453 1455 1457 1459 1460 1461 1461 1461 1462 1462 1464 1465 1466 1468 1469 1470 1472 1473 1475 1476 1477 1478 1480 1481 1483 1485 1487 1488 1490 1491 1491
1422 1425 1429 1431 1433 1436 1439 1442 1444 1446 1448 1450 1451 1453 1455 1457 1458 1459 1459 1459 1459 1460 1461 1463 1465 1466 1467 1469 1470 1472 1474 1474 1475 1476 1478 1480 1482 1483 1485 1486 1487 1488 1489
1422 1425 1427 1429 1432 1435 1438 1440 1442 1444 1446 1448 1450 1451 1453 1455 1456 1456 1456 1456 1457 1458 1460 1461 1463 1465 1466 1467 1469 1470 1471 1472 1474 1474 1475 1478 1480 1481 1482 1483 1484 1485 1485
1422 1424 1426 1428 1431 1434 1437 1439 1441 1442 1444 1446 1448 1450 1451 1452 1453 1454 1454 1455 1456 1458 1459 1461 1462 1463 1464 1466 1467 1468 1469 1470 1471 1472 1474 1476 1477 1478 1479 1480 1481 1482 1483